User: anonymous   Login
Location: Wien
(48.2082°N, 16.3738°E)
Time: 20:40:37
(UTC+02:00)
Language:

MOZHAYETS 4 - Orbit

View from above orbital plane
View from above orbital plane
View from above satellite
View from above satellite

Ground track
Ground track

The orbit data is extracted from the following two-line orbital elements,

1 27939U 03042A   19141.53325367  .00000113  00000-0  28851-4 0  9992
2 27939  98.0362 277.9058 0013764 151.7981 208.3971 14.66779517836416
Epoch (UTC): 21 May 2019 12:47:53
Eccentricity: 0.0013764
inclination: 98.0362°
perigee height: 661 km
apogee height: 681 km
right ascension of ascending node: 277.9058°
argument of perigee: 151.7981°
revolutions per day: 14.66779517
mean anomaly at epoch: 208.3971°
orbit number at epoch: 83641

The dashed part of the orbit path shows where the satellite is in the earth's shadow,  

DLR